Location: Pic du Midi - T1M
(42.9366°N, 0.1426°E)
Time: 11:00:34
(UTC+01:00)

X-37B - Pass Details

Date: 25 June 2021
Orbit: 383 x 392 km, 45.0° (Epoch: 01 July)

Event Time Altitude Azimuth Distance (km) Brightness Sun altitude
Rises 22:44:06 0° 264° (W) 2,245 4.8 -16.5°
Reaches altitude 10° 22:46:10 10° 267° (W) 1,393 3.8 -16.7°
Maximum altitude 22:49:17 65° 351° (N) 421 0.9 -17.0°
Enters shadow 22:51:45 15° 72° (ENE) 1,135 2.8 -17.2°
